Date String (YYYY-MM-DD hh:mm:ss) UTC,Instrument flags,Ambient pressure (hPa),Sample flow (lpm),Bypass flow (lpm),Sample temperature (°C),Ambient temperature (°C),ASC tube jacket temperature (°C),LED temperature (°C),Box temperature (°C),Sample RH (%),Span deviation,Mass concentration (μg/m³),Mass concentration (μg/m³),Mass concentration (μg/m³)
DateTimeUTC,F1_M11,P_M11,Q1_M11,Q2_M11,T1_M11,T2_M11,T3_M11,T4_M11,T5_M11,U1_M11,ZSPAN_M11,X0_M11,X2_M11,X1_M11
2022-08-28 16:00:00,,0822.4,5.00,0.00,29.6,27.8,00.0,38.2,31.3,16.4,0000.0,0012.17,0004.05,0003.25
2022-08-28 16:01:00,,0822.4,5.00,0.00,29.6,28.0,00.0,38.3,31.4,16.4,0000.0,0012.22,0004.07,0003.25
2022-08-28 16:02:00,,0822.4,5.01,0.00,29.6,28.2,00.0,38.3,31.4,15.4,0000.0,0011.85,0004.09,0003.24
2022-08-28 16:03:00,,0822.5,4.99,0.00,29.6,28.4,00.0,38.3,31.5,15.2,0000.0,0012.27,0004.10,0003.24
2022-08-28 16:04:00,,0822.6,4.99,0.00,29.6,28.5,00.0,38.3,31.5,15.5,0000.0,0011.89,0004.09,0003.24
2022-08-28 16:05:00,,0822.5,5.01,0.00,29.7,28.0,00.0,38.3,31.6,15.9,0000.0,0012.16,0004.09,0003.23
2022-08-28 16:06:00,,0822.6,4.99,0.00,29.6,26.9,00.0,38.3,31.4,16.0,0000.0,0012.53,0004.09,0003.24
2022-08-28 16:07:00,,0822.6,5.01,0.00,29.6,26.8,00.0,38.2,31.4,16.4,0000.0,0012.08,0004.08,0003.24
2022-08-28 16:08:00,,0822.6,4.99,0.00,29.6,27.1,00.0,38.2,31.4,16.4,0000.0,0012.07,0004.09,0003.25
2022-08-28 16:09:00,,0822.6,4.99,0.00,29.5,27.4,00.0,38.2,31.3,16.6,0000.0,0011.43,0004.13,0003.24
2022-08-28 16:10:00,,0822.5,5.00,0.00,29.5,27.6,00.0,38.2,31.3,15.7,0000.0,0011.01,0004.11,0003.25
2022-08-28 16:11:00,,0822.5,4.99,0.00,29.5,27.9,00.0,38.2,31.4,15.2,0000.0,0010.83,0004.09,0003.25
2022-08-28 16:12:00,,0822.5,5.01,0.00,29.5,28.1,00.0,38.2,31.4,15.0,0000.0,0010.72,0004.07,0003.25
2022-08-28 16:13:00,,0822.6,5.00,0.00,29.6,28.3,00.0,38.3,31.5,14.8,0000.0,0010.25,0004.04,0003.26
2022-08-28 16:14:00,,0822.5,5.00,0.00,29.6,28.3,00.0,38.3,31.5,15.4,0000.0,0009.43,0004.05,0003.26
2022-08-28 16:15:00,,0822.5,4.99,0.00,29.6,27.4,00.0,38.3,31.5,15.5,0000.0,0009.39,0004.05,0003.25
2022-08-28 16:16:00,,0822.5,5.00,0.00,29.6,26.6,00.0,38.2,31.3,15.7,0000.0,0009.02,0004.00,0003.25
2022-08-28 16:17:00,,0822.4,5.01,0.00,29.5,26.8,00.0,38.2,31.3,15.4,0000.0,0008.54,0003.98,0003.24
2022-08-28 16:18:00,,0822.5,4.99,0.00,29.5,27.1,00.0,38.2,31.2,15.0,0000.0,0008.82,0004.04,0003.23
2022-08-28 16:19:00,,0822.6,5.00,0.00,29.5,27.4,00.0,38.2,31.2,14.9,0000.0,0009.54,0004.02,0003.22
2022-08-28 16:20:00,,0822.6,5.01,0.00,29.5,27.7,00.0,38.2,31.3,15.0,0000.0,0009.45,0003.99,0003.21
2022-08-28 16:21:00,,0822.5,4.99,0.00,29.5,27.9,00.0,38.2,31.3,15.5,0000.0,0009.76,0003.96,0003.20
2022-08-28 16:22:00,,0822.4,5.01,0.00,29.5,28.1,00.0,38.2,31.4,15.5,0000.0,0010.11,0003.99,0003.19
2022-08-28 16:23:00,,0822.4,5.01,0.00,29.5,28.3,00.0,38.2,31.4,15.4,0000.0,0010.35,0004.01,0003.19
2022-08-28 16:24:00,,0822.5,5.00,0.00,29.6,28.4,00.0,38.2,31.5,15.4,0000.0,0010.23,0004.02,0003.19
2022-08-28 16:25:00,,0822.5,4.99,0.00,29.6,27.6,00.0,38.2,31.4,15.6,0000.0,0010.58,0004.01,0003.18
2022-08-28 16:26:00,,0822.4,5.01,0.00,29.5,26.7,00.0,38.2,31.3,15.9,0000.0,0010.69,0003.98,0003.18
2022-08-28 16:27:00,,0822.5,5.00,0.00,29.5,26.8,00.0,38.2,31.3,15.9,0000.0,0011.04,0003.98,0003.18
2022-08-28 16:28:00,,0822.5,5.00,0.00,29.5,27.1,00.0,38.1,31.2,15.4,0000.0,0010.80,0003.97,0003.18
2022-08-28 16:29:00,,0822.5,5.01,0.00,29.5,27.4,00.0,38.1,31.2,15.3,0000.0,0010.58,0003.92,0003.18
2022-08-28 16:30:00,,0822.6,4.99,0.00,29.5,27.6,00.0,38.1,31.3,15.5,0000.0,0010.54,0003.88,0003.18
2022-08-28 16:31:00,,0822.6,5.01,0.00,29.5,27.9,00.0,38.1,31.3,15.3,0000.0,0010.53,0003.89,0003.19
2022-08-28 16:32:00,,0822.5,4.99,0.00,29.5,28.1,00.0,38.2,31.4,15.6,0000.0,0010.25,0003.91,0003.20
2022-08-28 16:33:00,,0822.5,5.00,0.00,29.5,28.3,00.0,38.2,31.4,15.7,0000.0,0009.99,0003.90,0003.20
2022-08-28 16:34:00,,0822.6,5.00,0.00,29.6,28.4,00.0,38.2,31.5,15.4,0000.0,0009.80,0003.86,0003.19
2022-08-28 16:35:00,,0822.6,5.02,0.00,29.6,27.7,00.0,38.2,31.5,15.3,0000.0,0009.77,0003.87,0003.19
2022-08-28 16:36:00,,0822.6,4.99,0.00,29.5,26.8,00.0,38.2,31.3,16.0,0000.0,0009.26,0003.89,0003.19
2022-08-28 16:37:00,,0822.6,5.00,0.00,29.5,26.8,00.0,38.2,31.3,16.2,0000.0,0009.01,0003.90,0003.19
2022-08-28 16:38:00,,0822.6,5.00,0.00,29.5,27.1,00.0,38.1,31.3,16.4,0000.0,0008.60,0003.88,0003.19
2022-08-28 16:39:00,,0822.6,5.01,0.00,29.4,27.4,00.0,38.1,31.2,15.5,0000.0,0008.51,0003.85,0003.19
2022-08-28 16:40:00,,0822.6,5.00,0.00,29.5,27.7,00.0,38.1,31.3,15.8,0000.0,0008.45,0003.87,0003.19
2022-08-28 16:41:00,,0822.6,5.00,0.00,29.5,27.9,00.0,38.1,31.3,15.7,0000.0,0007.77,0003.86,0003.20
2022-08-28 16:42:00,,0822.7,5.00,0.00,29.5,28.1,00.0,38.1,31.4,15.7,0000.0,0007.88,0003.85,0003.19
2022-08-28 16:43:00,,0822.6,4.99,0.00,29.5,28.3,00.0,38.2,31.4,15.9,0000.0,0008.06,0003.88,0003.20
2022-08-28 16:44:00,,0822.6,5.00,0.00,29.6,27.8,00.0,38.2,31.5,15.7,0000.0,0008.02,0003.87,0003.19
2022-08-28 16:45:00,,0822.6,5.00,0.00,29.5,26.8,00.0,38.1,31.3,15.6,0000.0,0007.98,0003.87,0003.20
2022-08-28 16:46:00,,0822.7,5.00,0.00,29.5,26.8,00.0,38.1,31.3,15.8,0000.0,0007.82,0003.88,0003.20
2022-08-28 16:47:00,,0822.6,4.99,0.00,29.5,27.1,00.0,38.1,31.2,15.3,0000.0,0007.75,0003.85,0003.21
2022-08-28 16:48:00,,0822.6,5.00,0.00,29.4,27.3,00.0,38.1,31.2,15.1,0000.0,0008.22,0003.87,0003.21
2022-08-28 16:49:00,,0822.6,5.01,0.00,29.4,27.6,00.0,38.1,31.2,15.2,0000.0,0008.40,0003.90,0003.22
2022-08-28 16:50:00,,0822.5,5.01,0.00,29.4,27.8,00.0,38.1,31.3,14.6,0000.0,0008.56,0003.93,0003.23
2022-08-28 16:51:00,,0822.6,5.00,0.00,29.4,28.0,00.0,38.1,31.3,14.9,0000.0,0008.63,0003.95,0003.24
2022-08-28 16:52:00,,0822.5,5.01,0.00,29.5,28.2,00.0,38.1,31.4,14.5,0000.0,0008.63,0003.99,0003.26
2022-08-28 16:53:00,,0822.5,4.99,0.00,29.5,27.8,00.0,38.1,31.4,14.8,0000.0,0008.37,0003.99,0003.27
2022-08-28 16:54:00,,0822.6,4.99,0.00,29.5,26.7,00.0,38.1,31.3,15.5,0000.0,0008.29,0003.99,0003.27
2022-08-28 16:55:00,,0822.6,5.00,0.00,29.4,26.7,00.0,38.1,31.3,15.4,0000.0,0008.38,0004.06,0003.28
2022-08-28 16:56:00,,0822.6,4.99,0.00,29.4,27.0,00.0,38.0,31.2,15.0,0000.0,0008.39,0004.07,0003.29
2022-08-28 16:57:00,,0822.6,5.00,0.00,29.4,27.3,00.0,38.0,31.2,15.5,0000.0,0008.44,0004.05,0003.29
2022-08-28 16:58:00,,0822.6,5.01,0.00,29.4,27.5,00.0,38.0,31.2,15.4,0000.0,0009.02,0004.05,0003.29
2022-08-28 16:59:00,,0822.6,5.00,0.00,29.4,27.8,00.0,38.0,31.2,15.3,0000.0,0009.20,0004.03,0003.29
